Weather History for Northway, AK

Change the Weather History Date:

Sunday, October 13, 2013

  Actual Average Record
Temperature  
Mean Temperature 32 °F -  
Max Temperature 37 °F 33 °F 55 °F (1969)
Min Temperature 26 °F 14 °F -8 °F (1992)
Degree Days  
Heating Degree Days 34    
Moisture  
Dew Point 26 °F    
Average Humidity 82    
Maximum Humidity 92    
Minimum Humidity 70    
Precipitation  
Precipitation 0.00 in - - ()
Sea Level Pressure  
Sea Level Pressure 29.75 in    
Wind  
Wind Speed 3 mph (WSW)    
Max Wind Speed 6 mph    
Max Gust Speed -    
Visibility 10 miles    
Events      
Averages and records for this station are not official NWS values.
T = Trace of Precipitation, MM = Missing Value Source: NWS Daily Summary

Daily Weather History Graph

Daily Weather History Graph

Search for Another Location

Airport:

Trip Planner

Search our weather history database for the weather conditions in past years. The results will help you decide how hot, cold, wet, or windy it might be!

Date:

Astronomy

Oct. 13, 2013 Rise Set
Actual Time 8:10 AM AKDT 6:16 PM AKDT
Civil Twilight 7:23 AM AKDT 7:02 PM AKDT
Nautical Twilight 6:30 AM AKDT 7:55 PM AKDT
Astronomical Twilight 5:36 AM AKDT 8:49 PM AKDT
Moon 4:38 PM AKDT (10/13) 12:49 AM AKDT (10/13)
Length of Visible Light 11h 38m
Length of Day
10h 06m
Waxing Gibbous, 71% of the Moon is Illuminated
Oct 13
Waxing Gibbous
Oct 18
Full
Oct 26
Last Quarter
Nov 3
New
Nov 9
First Quarter

Hourly Weather History & Observations

Time (AKDT) Temp. Windchill Dew Point Humidity Pressure Visibility Wind Dir Wind Speed Gust Speed Precip Events Conditions
12:53 AM 34.0 °F 28.8 °F 25.0 °F 70% 29.91 in 10.0 mi ESE 5.8 mph - N/A   Mostly Cloudy
1:53 AM 33.1 °F 27.7 °F 25.0 °F 72% 29.88 in 10.0 mi SE 5.8 mph - N/A   Overcast
2:53 AM 33.1 °F 27.7 °F 25.0 °F 72% 29.87 in 10.0 mi SE 5.8 mph - N/A   Overcast
3:53 AM 30.9 °F - 25.0 °F 79% 29.86 in 10.0 mi Calm Calm - N/A   Overcast
4:53 AM 28.0 °F - 24.1 °F 85% 29.85 in 10.0 mi Calm Calm - N/A   Mostly Cloudy
5:53 AM 27.0 °F 21.6 °F 24.1 °F 89% 29.83 in 10.0 mi East 4.6 mph - N/A   Scattered Clouds
6:53 AM 27.0 °F - 24.1 °F 89% 29.82 in 10.0 mi Calm Calm - N/A   Scattered Clouds
7:53 AM 26.1 °F - 23.0 °F 88% 29.81 in 10.0 mi Calm Calm - N/A   Mostly Cloudy
8:53 AM 26.1 °F - 23.0 °F 88% 29.81 in 10.0 mi Calm Calm - N/A   Mostly Cloudy
9:53 AM 27.0 °F - 24.1 °F 89% 29.78 in 10.0 mi Calm Calm - N/A   Overcast
10:53 AM 28.9 °F - 26.1 °F 89% 29.76 in 10.0 mi Calm Calm - N/A   Overcast
11:53 AM 30.0 °F - 26.1 °F 85% 29.75 in 10.0 mi Calm Calm - N/A   Overcast
12:53 PM 32.0 °F 28.7 °F 27.0 °F 82% 29.73 in 10.0 mi SW 3.5 mph - N/A   Overcast
1:53 PM 33.1 °F - 28.0 °F 82% 29.69 in 10.0 mi Calm Calm - N/A   Overcast
2:53 PM 34.0 °F 31.0 °F 27.0 °F 75% 29.67 in 10.0 mi NNW 3.5 mph - N/A   Overcast
3:53 PM 34.0 °F 31.0 °F 28.0 °F 79% 29.63 in 10.0 mi WNW 3.5 mph - N/A   Mostly Cloudy
4:53 PM 37.0 °F - 28.0 °F 70% 29.60 in 10.0 mi Calm Calm - N/A   Mostly Cloudy
5:53 PM 35.1 °F 31.0 °F 28.0 °F 76% 29.62 in 10.0 mi NW 4.6 mph - N/A   Mostly Cloudy
6:53 PM 34.0 °F 29.8 °F 28.0 °F 79% 29.63 in 10.0 mi NNW 4.6 mph - N/A   Overcast
7:53 PM 33.1 °F - 28.0 °F 82% 29.65 in 10.0 mi Calm Calm - N/A   Mostly Cloudy
8:53 PM 30.0 °F 25.2 °F 27.0 °F 88% 29.67 in 10.0 mi SW 4.6 mph - N/A   Mostly Cloudy
9:53 PM 30.0 °F 26.5 °F 26.1 °F 85% 29.69 in 10.0 mi NW 3.5 mph - N/A   Scattered Clouds
10:53 PM 27.0 °F 21.6 °F 25.0 °F 92% 29.71 in 10.0 mi South 4.6 mph - N/A   Scattered Clouds
11:53 PM 27.0 °F - 25.0 °F 92% 29.74 in 10.0 mi Calm Calm - N/A   Partly Cloudy